| time (UTC) | temp C | wind direction | speed KPH | gust KPH | rain 1hr cm | rain 24hr cm | rain mn cm | humidity % | barometer mb |
| 20260906100440 | 26 | 161 | 0.0 | 0.0 | 0.00 | 0.00 | 0.00 | 84 | 1008.1 |
| 20260906095438 | 26 | 161 | 0.0 | 0.0 | 0.00 | 0.00 | 0.00 | 84 | 1007.9 |
| 20260906094440 | 27 | 161 | 0.0 | 0.0 | 0.00 | 0.00 | 0.00 | 84 | 1007.7 |
| 20260906093437 | 27 | 161 | 0.0 | 0.0 | 0.00 | 0.00 | 0.00 | 84 | 1007.7 |
| 20260906092437 | 27 | 161 | 0.0 | 0.0 | 0.00 | 0.00 | 0.00 | 83 | 1007.7 |
| 20260906091437 | 27 | 161 | 0.0 | 0.0 | 0.00 | 0.00 | 0.00 | 83 | 1007.9 |
| 20260906090437 | 27 | 161 | 0.0 | 0.0 | 0.00 | 0.00 | 0.00 | 83 | 1007.9 |
| 20260906085436 | 27 | 161 | 0.0 | 0.0 | 0.00 | 0.00 | 0.00 | 84 | 1007.6 |
| 20260906084437 | 27 | 161 | 0.0 | 0.0 | 0.00 | 0.00 | 0.00 | 83 | 1007.7 |
| 20260906083437 | 27 | 161 | 0.0 | 0.0 | 0.00 | 0.00 | 0.00 | 82 | 1007.7 |
| 20260906082437 | 27 | 161 | 0.0 | 0.0 | 0.00 | 0.00 | 0.00 | 82 | 1007.7 |
| 20260906081437 | 27 | 161 | 0.0 | 0.0 | 0.00 | 0.00 | 0.00 | 82 | 1007.8 |
| 20260906080436 | 27 | 161 | 0.0 | 0.0 | 0.00 | 0.00 | 0.00 | 82 | 1007.8 |
| 20260906075437 | 27 | 161 | 0.0 | 0.0 | 0.00 | 0.00 | 0.00 | 82 | 1007.9 |
| 20260906074437 | 27 | 161 | 0.0 | 0.0 | 0.00 | 0.00 | 0.00 | 82 | 1008.1 |
| 20260906073436 | 27 | 161 | 0.0 | 0.0 | 0.00 | 0.00 | 0.00 | 82 | 1008.1 |
| 20260906072437 | 27 | 161 | 0.0 | 0.0 | 0.00 | 0.00 | 0.00 | 82 | 1008.1 |
| 20260906071437 | 27 | 161 | 0.0 | 0.0 | 0.00 | 0.00 | 0.00 | 82 | 1008.4 |
| 20260906070436 | 27 | 161 | 0.0 | 3.2 | 0.00 | 0.00 | 0.00 | 82 | 1008.4 |
| 20260906065437 | 27 | 161 | 0.0 | 0.0 | 0.00 | 0.00 | 0.00 | 82 | 1008.6 |
| 20260906064436 | 27 | 161 | 0.0 | 0.0 | 0.00 | 0.00 | 0.00 | 82 | 1008.6 |
| 20260906063437 | 27 | 161 | 0.0 | 0.0 | 0.00 | 0.00 | 0.00 | 82 | 1008.6 |
| 20260906062436 | 27 | 161 | 0.0 | 1.6 | 0.00 | 0.00 | 0.00 | 81 | 1008.4 |
| 20260906061436 | 27 | 161 | 0.0 | 0.0 | 0.00 | 0.00 | 0.00 | 81 | 1008.5 |
| 20260906060436 | 27 | 161 | 0.0 | 0.0 | 0.00 | 0.00 | 0.00 | 81 | 1008.5 |
| 20260906055440 | 27 | 161 | 0.0 | 0.0 | 0.00 | 0.00 | 0.00 | 81 | 1008.3 |
| 20260906054436 | 27 | 161 | 0.0 | 3.2 | 0.00 | 0.00 | 0.00 | 80 | 1008.4 |
| 20260906053437 | 27 | 161 | 0.0 | 0.0 | 0.00 | 0.00 | 0.00 | 80 | 1008.4 |
| 20260906052437 | 27 | 161 | 0.0 | 4.8 | 0.00 | 0.00 | 0.00 | 80 | 1008.6 |
| 20260906051436 | 27 | 161 | 0.0 | 0.0 | 0.00 | 0.00 | 0.00 | 79 | 1008.6 |
| 20260906050436 | 28 | 161 | 0.0 | 0.0 | 0.00 | 0.00 | 0.15 | 79 | 1008.6 |
| 20260906045436 | 28 | 161 | 0.0 | 1.6 | 0.00 | 0.00 | 0.15 | 79 | 1008.7 |
| 20260906044436 | 28 | 161 | 0.0 | 4.8 | 0.00 | 0.00 | 0.15 | 79 | 1008.6 |
| 20260906043440 | 28 | 161 | 0.0 | 1.6 | 0.00 | 0.00 | 0.15 | 79 | 1008.6 |
| 20260906042437 | 28 | 161 | 0.0 | 4.8 | 0.00 | 0.00 | 0.15 | 78 | 1008.7 |
| 20260906041439 | 28 | 163 | 0.0 | 1.6 | 0.00 | 0.00 | 0.15 | 78 | 1008.7 |
| 20260906040436 | 28 | 163 | 0.0 | 1.6 | 0.00 | 0.00 | 0.15 | 78 | 1008.7 |
| 20260906035439 | 28 | 163 | 0.0 | 3.2 | 0.00 | 0.00 | 0.15 | 77 | 1008.7 |
| 20260906034437 | 28 | 163 | 0.0 | 1.6 | 0.00 | 0.00 | 0.15 | 77 | 1008.7 |
| 20260906033437 | 28 | 163 | 0.0 | 1.6 | 0.00 | 0.00 | 0.15 | 77 | 1008.7 |
| 20260906032439 | 28 | 163 | 0.0 | 4.8 | 0.00 | 0.00 | 0.15 | 77 | 1008.7 |
| 20260906031437 | 28 | 163 | 3.2 | 3.2 | 0.00 | 0.00 | 0.15 | 77 | 1008.6 |
| 20260906030436 | 28 | 163 | 0.0 | 0.0 | 0.00 | 0.00 | 0.15 | 76 | 1008.6 |
| 20260906025436 | 28 | 163 | 0.0 | 3.2 | 0.00 | 0.00 | 0.15 | 76 | 1008.4 |
| 20260906024440 | 28 | 163 | 3.2 | 4.8 | 0.00 | 0.00 | 0.15 | 77 | 1008.1 |
| 20260906023440 | 28 | 163 | 0.0 | 3.2 | 0.00 | 0.00 | 0.15 | 77 | 1008.1 |
| 20260906022437 | 28 | 163 | 1.6 | 6.4 | 0.00 | 0.00 | 0.15 | 78 | 1007.8 |
| 20260906021437 | 28 | 163 | 0.0 | 0.0 | 0.00 | 0.00 | 0.15 | 78 | 1007.6 |
| 20260906020439 | 28 | 163 | 0.0 | 0.0 | 0.00 | 0.00 | 0.15 | 78 | 1007.6 |
| 20260906015436 | 28 | 163 | 0.0 | 0.0 | 0.00 | 0.00 | 0.15 | 78 | 1007.5 |
| 20260906014436 | 28 | 163 | 0.0 | 0.0 | 0.00 | 0.00 | 0.15 | 78 | 1007.5 |
| 20260906013436 | 28 | 163 | 0.0 | 0.0 | 0.00 | 0.00 | 0.15 | 78 | 1007.5 |
| 20260906012436 | 28 | 163 | 0.0 | 0.0 | 0.00 | 0.00 | 0.15 | 78 | 1007.2 |
| 20260906011436 | 28 | 163 | 0.0 | 0.0 | 0.00 | 0.00 | 0.15 | 77 | 1007.2 |
| 20260906010437 | 28 | 163 | 0.0 | 0.0 | 0.00 | 0.00 | 0.15 | 77 | 1007.2 |
| 20260906005436 | 29 | 163 | 0.0 | 0.0 | 0.00 | 0.00 | 0.15 | 77 | 1007.2 |
| 20260906004436 | 29 | 163 | 0.0 | 0.0 | 0.00 | 0.00 | 0.15 | 76 | 1007.3 |
| 20260906003436 | 29 | 163 | 0.0 | 0.0 | 0.00 | 0.00 | 0.15 | 77 | 1007.3 |
| 20260906002436 | 29 | 163 | 0.0 | 0.0 | 0.00 | 0.00 | 0.15 | 76 | 1007.6 |
| 20260906001436 | 30 | 163 | 0.0 | 0.0 | 0.00 | 0.00 | 0.15 | 75 | 1007.6 |
| 20260906000436 | 30 | 163 | 0.0 | 0.0 | 0.00 | 0.00 | 0.15 | 75 | 1007.6 |
| 20260905235439 | 30 | 163 | 0.0 | 0.0 | 0.00 | 0.00 | 0.15 | 75 | 1007.6 |
| 20260905234436 | 30 | 163 | 0.0 | 0.0 | 0.00 | 0.00 | 0.15 | 74 | 1007.7 |
| 20260905233436 | 30 | 163 | 0.0 | 0.0 | 0.00 | 0.00 | 0.15 | 74 | 1007.7 |
| 20260905232437 | 30 | 163 | 0.0 | 0.0 | 0.00 | 0.00 | 0.15 | 75 | 1007.6 |
| 20260905231436 | 29 | 163 | 0.0 | 0.0 | 0.00 | 0.00 | 0.15 | 77 | 1007.6 |
| 20260905230436 | 29 | 163 | 0.0 | 0.0 | 0.00 | 0.00 | 0.15 | 77 | 1007.6 |
| 20260905225436 | 29 | 163 | 0.0 | 0.0 | 0.00 | 0.00 | 0.15 | 77 | 1007.3 |
| 20260905224437 | 29 | 163 | 0.0 | 0.0 | 0.00 | 0.00 | 0.15 | 78 | 1007.2 |
| 20260905223436 | 28 | 163 | 0.0 | 0.0 | 0.00 | 0.00 | 0.15 | 78 | 1007.2 |
| 20260905222436 | 28 | 163 | 0.0 | 0.0 | 0.00 | 0.00 | 0.15 | 78 | 1007.2 |
| 20260905221436 | 28 | 163 | 0.0 | 0.0 | 0.00 | 0.00 | 0.15 | 77 | 1007.5 |
| 20260905220436 | 28 | 163 | 0.0 | 0.0 | 0.00 | 0.00 | 0.15 | 77 | 1007.5 |
| 20260905215436 | 28 | 163 | 0.0 | 0.0 | 0.00 | 0.00 | 0.15 | 75 | 1007.5 |
| 20260905213404 | 29 | 163 | 0.0 | 0.0 | 0.00 | 0.00 | 0.15 | 70 | 1007.6 |
| 20260905212405 | 30 | 163 | 0.0 | 1.6 | 0.00 | 0.00 | 0.13 | 68 | 1008.2 |
| 20260905211404 | 31 | 163 | 1.6 | 8.0 | 0.00 | 0.00 | 0.08 | 67 | 1008.1 |
| 20260905210405 | 32 | 150 | 0.0 | 6.4 | 0.00 | 0.00 | 0.08 | 62 | 1008.2 |
| 20260905205407 | 32 | 152 | 0.0 | 8.0 | 0.00 | 0.00 | 0.08 | 63 | 1007.7 |
| 20260905204405 | 32 | 159 | 0.0 | 4.8 | 0.00 | 0.00 | 0.08 | 66 | 1007.6 |
| 20260905203405 | 32 | 159 | 0.0 | 1.6 | 0.00 | 0.00 | 0.08 | 65 | 1007.6 |
| 20260905202405 | 32 | 159 | 0.0 | 3.2 | 0.00 | 0.00 | 0.08 | 61 | 1007.8 |
| 20260905201405 | 33 | 159 | 0.0 | 1.6 | 0.00 | 0.00 | 0.08 | 58 | 1008.1 |
| 20260905200408 | 35 | 158 | 1.6 | 3.2 | 0.00 | 0.00 | 0.03 | 54 | 1008.2 |
| 20260905195405 | 35 | 158 | 0.0 | 0.0 | 0.00 | 0.00 | 0.00 | 48 | 1008.1 |
| 20260905194404 | 35 | 158 | 0.0 | 3.2 | 0.00 | 0.00 | 0.00 | 46 | 1008.2 |
| 20260905193404 | 35 | 158 | 0.0 | 8.0 | 0.00 | 0.00 | 0.00 | 46 | 1008.2 |
| 20260905192404 | 35 | 108 | 1.6 | 3.2 | 0.00 | 0.00 | 0.00 | 45 | 1008.3 |
| 20260905191405 | 36 | 107 | 0.0 | 3.2 | 0.00 | 0.00 | 0.00 | 44 | 1008.6 |
| 20260905190404 | 36 | 111 | 0.0 | 3.2 | 0.00 | 0.00 | 0.00 | 44 | 1008.6 |
| 20260905185404 | 35 | 109 | 0.0 | 6.4 | 0.00 | 0.00 | 0.00 | 47 | 1008.7 |
| 20260905184404 | 35 | 34 | 0.0 | 3.2 | 0.00 | 0.00 | 0.00 | 49 | 1008.8 |
| 20260905183404 | 34 | 34 | 0.0 | 3.2 | 0.00 | 0.00 | 0.00 | 53 | 1008.8 |
| 20260905182404 | 33 | 34 | 0.0 | 3.2 | 0.00 | 0.00 | 0.00 | 53 | 1009.2 |
| 20260905181404 | 33 | 34 | 3.2 | 4.8 | 0.00 | 0.00 | 0.00 | 55 | 1009.7 |
| 20260905180405 | 32 | 33 | 0.0 | 4.8 | 0.00 | 0.00 | 0.00 | 56 | 1009.7 |
| 20260905175405 | 32 | 32 | 1.6 | 3.2 | 0.00 | 0.00 | 0.00 | 57 | 1009.8 |
| 20260905174404 | 33 | 32 | 0.0 | 4.8 | 0.00 | 0.00 | 0.00 | 56 | 1010.0 |
| 20260905173408 | 33 | 56 | 0.0 | 4.8 | 0.00 | 0.00 | 0.00 | 57 | 1010.0 |
| 20260905172407 | 33 | 56 | 1.6 | 4.8 | 0.00 | 0.00 | 0.00 | 59 | 1010.1 |
| 20260905171404 | 32 | 56 | 0.0 | 1.6 | 0.00 | 0.00 | 0.00 | 61 | 1010.2 |
| 20260905170404 | 32 | 56 | 0.0 | 0.0 | 0.00 | 0.00 | 0.00 | 62 | 1010.2 |
| 20260905165404 | 32 | 56 | 0.0 | 8.0 | 0.00 | 0.00 | 0.00 | 64 | 1010.3 |
| 20260905164404 | 32 | 153 | 0.0 | 4.8 | 0.00 | 0.00 | 0.00 | 62 | 1010.3 |
| 20260905163405 | 32 | 153 | 0.0 | 3.2 | 0.00 | 0.00 | 0.00 | 64 | 1010.3 |
| 20260905162407 | 31 | 153 | 0.0 | 4.8 | 0.00 | 0.00 | 0.00 | 67 | 1010.3 |
| 20260905161405 | 31 | 153 | 0.0 | 4.8 | 0.00 | 0.00 | 0.00 | 68 | 1010.3 |
| 20260905160404 | 30 | 153 | 0.0 | 3.2 | 0.00 | 0.00 | 0.00 | 71 | 1010.3 |
| 20260905155407 | 30 | 153 | 0.0 | 4.8 | 0.00 | 0.00 | 0.00 | 74 | 1010.3 |
| 20260905154404 | 29 | 153 | 1.6 | 4.8 | 0.00 | 0.00 | 0.00 | 79 | 1010.3 |
| 20260905153407 | 28 | 153 | 0.0 | 1.6 | 0.00 | 0.00 | 0.00 | 82 | 1010.3 |
| 20260905152404 | 28 | 152 | 0.0 | 1.6 | 0.00 | 0.00 | 0.00 | 85 | 1010.4 |
| 20260905151404 | 27 | 153 | 0.0 | 0.0 | 0.00 | 0.00 | 0.00 | 86 | 1010.4 |
| 20260905150404 | 27 | 153 | 0.0 | 1.6 | 0.00 | 0.00 | 0.00 | 88 | 1010.4 |
| 20260905145404 | 27 | 153 | 0.0 | 0.0 | 0.00 | 0.00 | 0.00 | 89 | 1010.2 |
| 20260905144404 | 27 | 153 | 0.0 | 0.0 | 0.00 | 0.00 | 0.00 | 90 | 1010.2 |
| 20260905143504 | 27 | 153 | 0.0 | 1.6 | 0.00 | 0.00 | 0.00 | 90 | 1010.2 |
| 20260905142504 | 27 | 153 | 0.0 | 0.0 | 0.00 | 0.00 | 0.00 | 90 | 1010.3 |
| 20260905141504 | 27 | 153 | 0.0 | 1.6 | 0.00 | 0.00 | 0.00 | 90 | 1010.2 |
| 20260905140504 | 26 | 152 | 0.0 | 0.0 | 0.00 | 0.00 | 0.00 | 90 | 1010.2 |
| 20260905135504 | 26 | 153 | 0.0 | 0.0 | 0.00 | 0.00 | 0.00 | 90 | 1010.1 |
| 20260905134507 | 26 | 153 | 0.0 | 0.0 | 0.00 | 0.00 | 0.00 | 90 | 1010.2 |
| 20260905133507 | 26 | 153 | 0.0 | 0.0 | 0.00 | 0.00 | 0.00 | 89 | 1010.2 |
| 20260905132504 | 26 | 152 | 0.0 | 0.0 | 0.00 | 0.00 | 0.00 | 89 | 1010.2 |
| 20260905131504 | 25 | 152 | 0.0 | 0.0 | 0.00 | 0.00 | 0.00 | 88 | 1009.8 |
| 20260905130504 | 25 | 152 | 0.0 | 0.0 | 0.00 | 0.00 | 0.00 | 87 | 1009.8 |
| 20260905125504 | 25 | 153 | 0.0 | 0.0 | 0.00 | 0.00 | 0.00 | 86 | 1009.7 |
| 20260905124504 | 25 | 153 | 0.0 | 0.0 | 0.00 | 0.00 | 0.00 | 86 | 1009.6 |
| 20260905123504 | 25 | 152 | 0.0 | 0.0 | 0.00 | 0.00 | 0.00 | 86 | 1009.6 |
| 20260905122504 | 25 | 152 | 0.0 | 0.0 | 0.00 | 0.00 | 0.00 | 86 | 1009.5 |
| 20260905121504 | 25 | 152 | 0.0 | 0.0 | 0.00 | 0.00 | 0.00 | 86 | 1009.2 |
| 20260905120504 | 25 | 152 | 0.0 | 0.0 | 0.00 | 0.00 | 0.00 | 86 | 1009.2 |
| 20260905115504 | 25 | 152 | 0.0 | 0.0 | 0.00 | 0.00 | 0.00 | 86 | 1009.1 |
| 20260905114504 | 25 | 152 | 0.0 | 0.0 | 0.00 | 0.00 | 0.00 | 86 | 1009.0 |
| 20260905113507 | 25 | 153 | 0.0 | 0.0 | 0.00 | 0.00 | 0.00 | 86 | 1009.0 |
| 20260905112504 | 25 | 153 | 0.0 | 0.0 | 0.00 | 0.00 | 0.00 | 85 | 1008.7 |
| 20260905111504 | 25 | 153 | 0.0 | 0.0 | 0.00 | 0.00 | 0.00 | 85 | 1008.6 |
| 20260905110504 | 25 | 152 | 0.0 | 0.0 | 0.00 | 0.00 | 0.00 | 85 | 1008.6 |
| 20260905105504 | 25 | 153 | 0.0 | 0.0 | 0.00 | 0.00 | 0.00 | 85 | 1008.6 |
| 20260905104503 | 25 | 152 | 0.0 | 0.0 | 0.00 | 0.00 | 0.00 | 84 | 1008.6 |
| 20260905103504 | 25 | 153 | 0.0 | 0.0 | 0.00 | 0.00 | 0.00 | 84 | 1008.6 |
| 20260905102503 | 25 | 152 | 0.0 | 0.0 | 0.00 | 0.00 | 0.00 | 84 | 1008.6 |
| 20260905101504 | 25 | 153 | 0.0 | 0.0 | 0.00 | 0.00 | 0.00 | 84 | 1008.6 |